Flag for Ireland Weather past 2 weeks in Limerick, Ireland

Now
37 °F

Passing clouds.


Feels Like: 32 °F
Forecast: 36 / 47 °F
Wind: 7 mph from Southwest

Location: Shannon Airport

Current Time: Mar 4, 2015 at 12:33:58 AM

Latest Report: Mar 4, 2015 at 12:00 AM


Visibility: N/A

Pressure: 30.24 "Hg

Humidity: 81%

Dew point: 32 °F

Location of LimerickLocation

Historic Weather in Limerick — Graph

°F

Limerick temperature yesterday

Maximum temperature yesterday: 46 °F (at 2:00 PM)
Minimum temperature yesterday: 34 °F (at 7:30 AM)
Average temperature yesterday: 39 °F

Past Weeks' High & Low Weather Summary

 TemperatureHumidityPressure
High54 °F (Feb 18, 11:00 AM)100% (Feb 22, 11:30 AM)30.60 "Hg (Feb 22, 11:30 AM)
Low34 °F (Feb 16, 11:30 PM)53% (Feb 26, 11:00 AM)29.00 "Hg (Feb 23, 3:00 PM)
Average43 °F82%29.79 "Hg
* Reported Feb 16 11:00 PM — Mar 3 11:30 PM, Limerick, Weather by CustomWeather, © 2015

Note: Actual official high and low records may vary slightly from our data, if they occured in-between our weather recording intervals... More about our weather records

Advertising

Limerick weather history for previous 24 hours

 ConditionsComfort  
Time TempWeatherWind HumidityBarometerVisibility
11:30 PM
Tue, Mar 3
37 °FPassing clouds.13 mph81%30.24 "HgN/A
11:00 PM37 °FPassing clouds.10 mph81%30.24 "HgN/A
10:30 PM39 °FPassing clouds.14 mph75%30.21 "HgN/A
10:00 PM39 °FPartly cloudy.15 mph75%30.21 "HgN/A
9:30 PM39 °FPartly cloudy.21 mph75%30.18 "HgN/A
9:00 PM39 °FPartly cloudy.16 mph75%30.18 "HgN/A
8:30 PM39 °FPartly cloudy.14 mph81%30.15 "HgN/A
8:00 PM41 °FPartly cloudy.20 mph70%30.12 "HgN/A
7:30 PM39 °FPassing clouds.14 mph81%30.12 "HgN/A
7:00 PM39 °FPassing clouds.12 mph75%30.09 "HgN/A
6:30 PM39 °FSprinkles. Partly cloudy.28 mph75%30.09 "Hg5 mi
6:00 PM41 °FBroken clouds.8 mph81%30.07 "Hg6 mi
5:30 PM41 °FBroken clouds.8 mph81%30.07 "HgN/A
5:00 PM43 °FPassing clouds.10 mph76%30.07 "HgN/A
4:30 PM43 °FPartly sunny.16 mph76%30.04 "HgN/A
4:00 PM39 °FBroken clouds.13 mph93%30.04 "HgN/A
3:30 PM37 °FBroken clouds.14 mph93%30.04 "HgN/A
3:00 PM37 °FSprinkles. Partly sunny.21 mph93%30.01 "Hg4 mi
2:30 PM37 °FThunderstorms. Partly sunny.24 mph81%30.01 "Hg4 mi
2:00 PM46 °FBroken clouds.26 mph57%29.98 "HgN/A
1:30 PM45 °FScattered clouds.28 mph57%29.95 "HgN/A
1:00 PM43 °FPartly sunny.14 mph66%29.95 "HgN/A
12:30 PM43 °FScattered clouds.23 mph61%29.98 "HgN/A
12:00 PM45 °FScattered clouds.29 mph61%29.95 "HgN/A
11:30 AM43 °FScattered clouds.26 mph66%29.95 "HgN/A
11:00 AM41 °FScattered clouds.14 mph76%29.92 "HgN/A
10:30 AM39 °FPassing clouds.17 mph81%29.92 "HgN/A
10:00 AM36 °FPassing clouds.10 mph93%29.92 "HgN/A
9:30 AM36 °FPartly sunny.20 mph87%29.92 "Hg4 mi
9:00 AM37 °FScattered clouds.10 mph81%29.89 "HgN/A
8:30 AM36 °FPassing clouds.13 mph87%29.89 "HgN/A
8:00 AM36 °FPartly sunny.18 mph87%29.89 "Hg4 mi
7:30 AM34 °FScattered clouds.8 mph93%29.86 "HgN/A
7:00 AM36 °FSprinkles. Partly cloudy.10 mph87%29.89 "Hg4 mi
6:30 AM36 °FSprinkles. Passing clouds.17 mph81%29.86 "Hg3 mi
6:00 AM37 °FPassing clouds.15 mph75%29.83 "HgN/A
5:30 AM37 °FPartly cloudy.15 mph81%29.83 "HgN/A
5:00 AM37 °FPartly cloudy.17 mph87%29.83 "HgN/A
4:30 AM37 °FPassing clouds.17 mph81%29.80 "HgN/A
4:00 AM36 °FPassing clouds.23 mph81%29.80 "HgN/A
3:30 AM37 °FSprinkles. Partly cloudy.15 mph75%29.80 "Hg5 mi
3:00 AM36 °FPassing clouds.13 mph87%29.80 "HgN/A
2:30 AM36 °FPassing clouds.8 mph87%29.80 "HgN/A
2:00 AM37 °FPassing clouds.14 mph81%29.83 "HgN/A
1:30 AM36 °FPassing clouds.13 mph93%29.80 "HgN/A
1:00 AM36 °FPassing clouds.15 mph93%29.80 "HgN/A
12:30 AM36 °FPassing clouds.13 mph93%29.80 "HgN/A
12:00 AM36 °FPassing clouds.15 mph93%29.83 "HgN/A
Weather by CustomWeather, © 2015

See weather overviewHow to use our weather pages